Weather in Aachen

Germany     50°46′44″N   6°04′58″E
temp.,
°C
wind,
m/s
gust,
m/s
humid.,
%
clouds,
%
prec.,
mm/h
press.,
hPa
HPBL,
m
12 may, wed
wed1223:00+10wsw3796100 0.9 1010309
02:00+10wsw2499100 3.3 1011235
05:00+10wsw4992100 0.4 1011343
08:00+8wsw479313 0.4 1013334
11:00+12w447682 0.1 10131004
14:00+14w336494 0.3 10121297
17:00+13wnw217174 1.1 1011697
20:00+11ese228394 3.7 101139
13 may, thu
thu1323:00+8se228741 0.3 101119
02:00+7sse22885 0.3 101015
05:00+6s22875 0.0 100919
08:00+10s128183 0.0 1009102
11:00+14nw116351 0.0 1008912
14:00+16wsw1161100 0.5 10071291
17:00+11wsw3791100 1.8 1007308
20:00+10wsw2493100 3.9 1008122
14 may, fri
fri1423:00+9sw2291100 1.0 100824
02:00+7ssw2290100 1.0 100817
05:00+6ssw229267 0.0 100722
08:00+9ssw23885 0.0 1008175
11:00+13wsw457962 0.6 10081016
14:00+13wsw5676100 1.5 10091110
17:00+14w457257 0.6 10091029
20:00+12ssw34815 0.8 1009115
15 may, sat
sat1523:00+8ssw34913 0.0 101146
02:00+6s35920 0.0 101184
05:00+6s36930 0.0 101099
08:00+8ssw5109078 0.0 1009559
11:00+8ssw5990100 0.0 1009668
14:00+13sw6869100 0.3 10081343
17:00+11sw61083100 0.9 1006944
20:00+9sw5982100 1.1 10061095
16 may, sun
sun1623:00+7ssw31094100 1.7 1005646
02:00+8sw51196100 1.8 1006538
05:00+7sw5119233 0.1 1006310
08:00+9sw7129159 0.1 1006744
11:00+11sw9128229 0.8 10061117
14:00+11sw8127890 1.8 10071107
17:00+13sw7127891 0.7 10051376
20:00+11sw7128679 2.3 1004571